Weather History for Cut Bank, MT

Change the Weather History Date:

Tuesday, December 4, 2012

  Actual Average Record
Temperature  
Mean Temperature 40 °F 24 °F  
Max Temperature 50 °F 34 °F 61 °F (1988)
Min Temperature 30 °F 14 °F -29 °F (1972)
Degree Days  
Heating Degree Days 25 41  
Month to date heating degree days 109 163  
Since 1 July heating degree days 2249 2426  
Cooling Degree Days 0 0  
Month to date cooling degree days 0 0  
Year to date cooling degree days 210 162  
Moisture  
Dew Point 28 °F    
Average Humidity 59    
Maximum Humidity 72    
Minimum Humidity 46    
Precipitation  
Precipitation 0.00 in 0.01 in 0.10 in (1912)
Month to date precipitation 0.00 0.03  
Year to date precipitation 8.99 10.71  
Snow  
Snow 0.00 in - - ()
Snow Depth 0.00 in    
Sea Level Pressure  
Sea Level Pressure 29.84 in    
Wind  
Wind Speed 11 mph (SSW)    
Max Wind Speed 26 mph    
Max Gust Speed 33 mph    
Visibility 10 miles    
Events      
T = Trace of Precipitation, MM = Missing Value Source: NWS Daily Summary

Daily Weather History Graph

Daily Weather History Graph

Search for Another Location

Airport:

Trip Planner

Search our weather history database for the weather conditions in past years. The results will help you decide how hot, cold, wet, or windy it might be!

Date:

Astronomy

Dec. 04, 2012 Rise Set
Actual Time 8:04 AM MST 4:34 PM MST
Civil Twilight 7:28 AM MST 5:11 PM MST
Nautical Twilight 6:48 AM MST 5:50 PM MST
Astronomical Twilight 6:10 AM MST 6:28 PM MST
Moon 10:46 PM MST (12/4) 11:43 AM MST (12/4)
Length of Visible Light 9h 42m
Length of Day
8h 29m
Waning Gibbous, 69% of the Moon is Illuminated
Dec 4
Waning Gibbous
Dec 6
Last Quarter
Dec 13
New
Dec 19
First Quarter
Dec 28
Full

Hourly Weather History & Observations

Time (MST) Temp. Windchill Dew Point Humidity Pressure Visibility Wind Dir Wind Speed Gust Speed Precip Events Conditions
12:56 AM 36.0 °F 27.1 °F 24.1 °F 62% 30.04 in 10.0 mi West 13.8 mph - N/A   Clear
1:56 AM 37.0 °F 33.3 °F 25.0 °F 62% 30.02 in 10.0 mi WSW 4.6 mph - N/A   Clear
2:56 AM 35.1 °F 29.3 °F 23.0 °F 61% 30.02 in 10.0 mi SSW 6.9 mph - N/A   Clear
3:56 AM 32.0 °F 24.8 °F 24.1 °F 73% 30.01 in 10.0 mi East 8.1 mph - N/A   Clear
4:56 AM 33.1 °F 25.5 °F 23.0 °F 66% 29.98 in 10.0 mi SE 9.2 mph - N/A   Mostly Cloudy
5:56 AM 32.0 °F 24.8 °F 23.0 °F 69% 29.96 in 10.0 mi SE 8.1 mph - N/A   Overcast
6:56 AM 33.1 °F 25.5 °F 24.1 °F 70% 29.91 in 10.0 mi South 9.2 mph - N/A   Overcast
7:56 AM 35.1 °F 30.1 °F 23.0 °F 61% 29.92 in 10.0 mi SSE 5.8 mph - N/A   Overcast
8:56 AM 35.1 °F 27.4 °F 24.1 °F 64% 29.89 in 10.0 mi South 10.4 mph - N/A   Overcast
9:56 AM 36.0 °F 29.0 °F 24.1 °F 62% 29.87 in 10.0 mi SE 9.2 mph - N/A   Mostly Cloudy
10:56 AM 39.9 °F 30.2 °F 27.0 °F 60% 29.84 in 10.0 mi South 20.7 mph - N/A   Clear
11:56 AM 43.0 °F 36.0 °F 28.0 °F 56% 29.81 in 10.0 mi South 13.8 mph - N/A   Clear
12:56 PM 46.0 °F 40.2 °F 28.9 °F 51% 29.79 in 10.0 mi South 12.7 mph - N/A   Scattered Clouds
1:56 PM 50.0 °F - 30.0 °F 46% 29.74 in 10.0 mi SW 25.3 mph 33.4 mph N/A   Clear
2:56 PM 46.0 °F 41.9 °F 28.9 °F 51% 29.75 in 10.0 mi South 8.1 mph - N/A   Partly Cloudy
3:56 PM 44.1 °F 42.5 °F 28.9 °F 55% 29.77 in 10.0 mi SW 3.5 mph - N/A   Clear
4:56 PM 43.0 °F 37.7 °F 30.9 °F 62% 29.77 in 10.0 mi WSW 9.2 mph - N/A   Clear
5:56 PM 45.0 °F 40.6 °F 30.9 °F 58% 29.76 in 10.0 mi SW 8.1 mph - N/A   Clear
6:56 PM 46.0 °F 40.2 °F 30.9 °F 56% 29.74 in 10.0 mi WSW 12.7 mph - N/A   Clear
7:56 PM 45.0 °F 39.7 °F 32.0 °F 60% 29.73 in 10.0 mi SW 10.4 mph - N/A   Clear
8:56 PM 44.1 °F 36.5 °F 32.0 °F 63% 29.71 in 10.0 mi SW 17.3 mph - N/A   Clear
9:56 PM 46.9 °F - 32.0 °F 56% 29.69 in 10.0 mi SW 16.1 mph 24.2 mph N/A   Clear
10:56 PM 43.0 °F 37.7 °F 32.0 °F 65% 29.69 in 10.0 mi SSW 9.2 mph - N/A   Clear
11:56 PM 44.1 °F 39.0 °F 30.9 °F 60% 29.65 in 10.0 mi South 9.2 mph - N/A   Clear